SDM7 ULLI-OMDB

Flight info

Callsign SDM7
Flight time 4h 49m
Altitude 40000
Route SUGIN1B SUGIN DCT GUBLI DCT DITOT DCT BOKRU DCT ODATI DCT MONAB DCT BUMAR/N0500F400 DCT ULDUS DCT VUTEB VUTE4C
Aircraft B748/H-SDE3FGHIM1M2RWXY/LB1

Departure

Time 2026-04-21 12:35
Airport Pulkovo Airport (ULLI)

Arrival

Time 2026-04-21 17:24
Airport Dubai International Airport (OMDB)
Time Latitude Longitude Altitude Speed Heading
2026-04-21 12:17 59.80136 30.26815 93 ft 0 kts 107°
2026-04-21 12:27 59.80139 30.26794 89 ft 4 kts 105°
2026-04-21 12:28 59.80145 30.26744 94 ft 4 kts 92°
2026-04-21 12:28 59.80145 30.26699 93 ft 4 kts 64°
2026-04-21 12:28 59.80140 30.26671 92 ft 3 kts 21°
2026-04-21 12:28 59.80137 30.26668 92 ft 3 kts 17°
2026-04-21 12:30 59.80138 30.26669 92 ft 1 kts 17°
2026-04-21 12:30 59.80144 30.26672 92 ft 1 kts 17°
2026-04-21 12:30 59.80160 30.26682 93 ft 4 kts 17°
2026-04-21 12:31 59.80196 30.26703 91 ft 7 kts 16°
2026-04-21 12:31 59.80253 30.26736 92 ft 10 kts 16°
2026-04-21 12:31 59.80336 30.26784 92 ft 13 kts 21°
2026-04-21 12:31 59.80372 30.26835 93 ft 2 kts 58°
2026-04-21 12:32 59.80379 30.26869 93 ft 3 kts 71°
2026-04-21 12:32 59.80379 30.26977 93 ft 14 kts 100°
2026-04-21 12:32 59.80329 30.27315 94 ft 34 kts 106°
2026-04-21 12:32 59.80264 30.27761 91 ft 33 kts 106°
2026-04-21 12:33 59.80200 30.28183 91 ft 31 kts 106°
2026-04-21 12:33 59.80157 30.28559 91 ft 16 kts 79°
2026-04-21 12:33 59.80184 30.28629 92 ft 7 kts 47°
2026-04-21 12:33 59.80228 30.28730 92 ft 14 kts 49°
2026-04-21 12:34 59.80313 30.28857 90 ft 6 kts
2026-04-21 12:34 59.80333 30.28833 90 ft 7 kts 321°
2026-04-21 12:34 59.80357 30.28748 87 ft 5 kts 287°
2026-04-21 12:34 59.80373 30.28644 88 ft 29 kts 287°
2026-04-21 12:35 59.80533 30.27593 92 ft 127 kts 287°
2026-04-21 12:35 59.80855 30.25432 275 ft 184 kts 287°
2026-04-21 12:35 59.81215 30.22920 800 ft 199 kts 288°
2026-04-21 12:35 59.81626 30.20145 1327 ft 213 kts 288°
2026-04-21 12:36 59.81958 30.17230 2000 ft 231 kts 272°
2026-04-21 12:36 59.81477 30.13972 2827 ft 262 kts 236°
2026-04-21 12:36 59.80128 30.11640 4444 ft 264 kts 206°
2026-04-21 12:36 59.78348 30.10790 5765 ft 272 kts 177°
2026-04-21 12:37 59.76561 30.11707 7131 ft 276 kts 149°
2026-04-21 12:37 59.75129 30.14213 8386 ft 278 kts 120°
2026-04-21 12:37 59.74219 30.17652 9700 ft 281 kts 111°
2026-04-21 12:37 59.73356 30.21157 10680 ft 298 kts 114°
2026-04-21 12:38 59.72177 30.24783 11317 ft 329 kts 126°
2026-04-21 12:38 59.70546 30.28241 11990 ft 358 kts 133°
2026-04-21 12:38 59.68669 30.31700 12906 ft 373 kts 134°
2026-04-21 12:38 59.66790 30.35274 14183 ft 378 kts 131°
2026-04-21 12:39 59.64986 30.39100 15256 ft 383 kts 129°
2026-04-21 12:39 59.63164 30.42987 16348 ft 389 kts 130°
2026-04-21 12:39 59.61257 30.46852 17408 ft 395 kts 131°
2026-04-21 12:39 59.59308 30.50746 18455 ft 401 kts 130°
2026-04-21 12:40 59.57358 30.54717 19335 ft 406 kts 129°
2026-04-21 12:40 59.55385 30.58769 20235 ft 412 kts 129°
2026-04-21 12:40 59.53377 30.62849 21072 ft 417 kts 129°
2026-04-21 12:40 59.51335 30.66966 21910 ft 423 kts 129°
2026-04-21 12:41 59.49275 30.71125 22738 ft 428 kts 129°
2026-04-21 12:41 59.47188 30.75346 23532 ft 433 kts 129°
2026-04-21 12:41 59.45073 30.79610 24212 ft 438 kts 129°
2026-04-21 12:41 59.42934 30.83903 24887 ft 441 kts 129°
2026-04-21 12:42 59.40776 30.88230 25535 ft 445 kts 129°
2026-04-21 12:42 59.38598 30.92592 26187 ft 449 kts 129°
2026-04-21 12:42 59.36400 30.96988 26834 ft 453 kts 129°
2026-04-21 12:42 59.34179 31.01417 27487 ft 457 kts 129°
2026-04-21 12:43 59.31936 31.05879 28112 ft 462 kts 129°
2026-04-21 12:43 59.29673 31.10377 28739 ft 466 kts 129°
2026-04-21 12:43 59.27387 31.14910 29339 ft 470 kts 130°
2026-04-21 12:43 59.25078 31.19477 29964 ft 474 kts 130°
2026-04-21 12:44 59.22746 31.24080 30494 ft 479 kts 130°
2026-04-21 12:44 59.20393 31.28716 31000 ft 483 kts 130°
2026-04-21 12:44 59.18021 31.33381 31499 ft 487 kts 130°
2026-04-21 12:44 59.15624 31.38084 31997 ft 491 kts 130°
2026-04-21 12:45 59.13205 31.42820 32497 ft 495 kts 130°
2026-04-21 12:45 59.10764 31.47589 32982 ft 499 kts 130°
2026-04-21 12:45 59.08333 31.52328 33457 ft 504 kts 131°
2026-04-21 12:45 59.05846 31.57167 33944 ft 508 kts 131°
2026-04-21 12:46 59.03336 31.62038 34362 ft 512 kts 131°
2026-04-21 12:46 59.00803 31.66945 34759 ft 517 kts 131°
2026-04-21 12:46 58.98246 31.71885 35159 ft 521 kts 131°
2026-04-21 12:46 58.95670 31.76853 35622 ft 523 kts 132°
2026-04-21 12:47 58.93060 31.81871 36184 ft 523 kts 132°
2026-04-21 12:47 58.90477 31.86830 36738 ft 523 kts 132°
2026-04-21 12:47 58.87890 31.91786 37270 ft 524 kts 133°
2026-04-21 12:47 58.85333 31.96673 37791 ft 524 kts 133°
2026-04-21 12:48 58.82738 32.01620 38312 ft 524 kts 133°
2026-04-21 12:48 58.80140 32.06563 38787 ft 525 kts 133°
2026-04-21 12:48 58.77539 32.11502 39176 ft 525 kts 133°
2026-04-21 12:48 58.74936 32.16433 39548 ft 525 kts 133°
2026-04-21 12:49 58.72334 32.21351 39911 ft 525 kts 133°
2026-04-21 12:49 58.69727 32.26266 40279 ft 525 kts 133°
2026-04-21 12:49 58.67119 32.31175 40623 ft 525 kts 133°
2026-04-21 12:49 58.64509 32.36076 40967 ft 525 kts 133°
2026-04-21 12:50 58.61889 32.40984 41037 ft 528 kts 133°
2026-04-21 12:50 58.56623 32.50815 41042 ft 528 kts 134°
2026-04-21 12:51 58.51350 32.60617 41046 ft 528 kts 134°
2026-04-21 12:51 58.46073 32.70383 41047 ft 528 kts 134°
2026-04-21 12:52 58.40791 32.80116 41046 ft 528 kts 134°
2026-04-21 12:52 58.35510 32.89804 41046 ft 527 kts 134°
2026-04-21 12:53 58.30215 32.99475 41049 ft 527 kts 134°
2026-04-21 12:53 58.24946 33.09057 41047 ft 527 kts 134°
2026-04-21 12:54 58.19601 33.18735 41047 ft 527 kts 134°
2026-04-21 12:54 58.14326 33.28245 41046 ft 528 kts 134°
2026-04-21 12:55 58.09001 33.37804 41038 ft 528 kts 135°
2026-04-21 12:55 58.03673 33.47327 41043 ft 528 kts 135°
2026-04-21 12:56 57.98335 33.56827 41038 ft 527 kts 135°
2026-04-21 12:56 57.92990 33.66296 41034 ft 527 kts 135°
2026-04-21 12:57 57.87638 33.75738 41027 ft 527 kts 136°
2026-04-21 12:57 57.81940 33.84460 41027 ft 529 kts 140°
2026-04-21 12:58 57.76192 33.93054 41023 ft 528 kts 139°
2026-04-21 12:58 57.70452 34.01644 41026 ft 528 kts 140°
2026-04-21 12:59 57.64704 34.10172 41017 ft 528 kts 140°
2026-04-21 12:59 57.58946 34.18708 41019 ft 528 kts 140°
2026-04-21 13:00 57.53190 34.27186 41013 ft 528 kts 140°
2026-04-21 13:00 57.47427 34.35653 41014 ft 528 kts 140°
2026-04-21 13:01 57.41657 34.44086 41012 ft 528 kts 140°
2026-04-21 13:01 57.35927 34.52430 41007 ft 528 kts 140°
2026-04-21 13:02 57.30143 34.60817 41006 ft 528 kts 140°
2026-04-21 13:02 57.21461 34.73339 41001 ft 528 kts 140°
2026-04-21 13:03 57.15667 34.81662 40994 ft 528 kts 141°
2026-04-21 13:03 57.09861 34.89955 40992 ft 528 kts 141°
2026-04-21 13:04 57.04053 34.98229 40988 ft 528 kts 141°
2026-04-21 13:04 56.98233 35.06476 40983 ft 529 kts 141°
2026-04-21 13:05 56.92414 35.14696 40982 ft 529 kts 141°
2026-04-21 13:05 56.86574 35.22907 40977 ft 529 kts 141°
2026-04-21 13:06 56.80731 35.31096 40977 ft 529 kts 141°
2026-04-21 13:06 56.74879 35.39257 40972 ft 530 kts 142°
2026-04-21 13:07 56.69029 35.47390 40966 ft 530 kts 142°
2026-04-21 13:07 56.63164 35.55504 40961 ft 530 kts 142°
2026-04-21 13:08 56.57295 35.63595 40960 ft 530 kts 142°
2026-04-21 13:08 56.51420 35.71661 40960 ft 530 kts 142°
2026-04-21 13:09 56.46532 35.78348 40958 ft 530 kts 142°
2026-04-21 13:09 56.40655 35.86356 40944 ft 529 kts 142°
2026-04-21 13:10 56.34769 35.94347 40944 ft 529 kts 142°
2026-04-21 13:10 56.28875 36.02318 40938 ft 529 kts 142°
2026-04-21 13:11 56.22985 36.10253 40933 ft 529 kts 142°
2026-04-21 13:11 56.17088 36.18163 40936 ft 529 kts 142°
2026-04-21 13:12 56.11191 36.26043 40927 ft 529 kts 142°
2026-04-21 13:12 56.05288 36.33902 40930 ft 529 kts 143°
2026-04-21 13:13 55.99381 36.41732 40922 ft 528 kts 143°
2026-04-21 13:13 55.93471 36.49540 40919 ft 528 kts 143°
2026-04-21 13:14 55.87557 36.57320 40911 ft 528 kts 143°
2026-04-21 13:14 55.81642 36.65071 40906 ft 528 kts 143°
2026-04-21 13:15 55.75723 36.72800 40900 ft 528 kts 143°
2026-04-21 13:15 55.69799 36.80502 40896 ft 528 kts 143°
2026-04-21 13:16 55.63872 36.88181 40894 ft 528 kts 143°
2026-04-21 13:16 55.57941 36.95836 40889 ft 528 kts 143°
2026-04-21 13:17 55.52012 37.03458 40892 ft 528 kts 143°
2026-04-21 13:17 55.46112 37.11014 40891 ft 528 kts 143°
2026-04-21 13:18 55.40167 37.18599 40889 ft 528 kts 144°
2026-04-21 13:18 55.34217 37.26163 40885 ft 528 kts 144°
2026-04-21 13:19 55.28262 37.33704 40878 ft 528 kts 144°
2026-04-21 13:19 55.22299 37.41225 40868 ft 528 kts 144°
2026-04-21 13:20 55.16333 37.48724 40866 ft 528 kts 144°
2026-04-21 13:20 55.10368 37.56191 40868 ft 528 kts 144°
2026-04-21 13:21 55.04390 37.63648 40869 ft 528 kts 144°
2026-04-21 13:21 54.98407 37.71083 40870 ft 528 kts 144°
2026-04-21 13:22 54.92424 37.78490 40870 ft 528 kts 144°
2026-04-21 13:22 54.86433 37.85880 40874 ft 528 kts 144°
2026-04-21 13:23 54.80432 37.93253 40878 ft 529 kts 145°
2026-04-21 13:23 54.74424 38.00609 40881 ft 529 kts 145°
2026-04-21 13:24 54.68408 38.07947 40885 ft 529 kts 145°
2026-04-21 13:24 54.62387 38.15265 40886 ft 529 kts 145°
2026-04-21 13:25 54.56357 38.22565 40891 ft 530 kts 145°
2026-04-21 13:25 54.50320 38.29848 40892 ft 530 kts 145°
2026-04-21 13:26 54.44271 38.37119 40898 ft 531 kts 145°
2026-04-21 13:26 54.38214 38.44372 40904 ft 531 kts 145°
2026-04-21 13:27 54.32150 38.51606 40900 ft 531 kts 146°
2026-04-21 13:27 54.26079 38.58824 40907 ft 531 kts 146°
2026-04-21 13:28 54.20005 38.66018 40907 ft 532 kts 146°
2026-04-21 13:28 54.13916 38.73202 40912 ft 532 kts 146°
2026-04-21 13:29 54.07863 38.80320 40912 ft 532 kts 146°
2026-04-21 13:29 54.01720 38.87517 40912 ft 532 kts 146°
2026-04-21 13:30 53.95663 38.94588 40915 ft 532 kts 146°
2026-04-21 13:30 53.89553 39.01694 40915 ft 532 kts 146°
2026-04-21 13:31 53.83440 39.08778 40917 ft 532 kts 146°
2026-04-21 13:31 53.77322 39.15844 40917 ft 532 kts 146°
2026-04-21 13:32 53.71199 39.22889 40915 ft 532 kts 146°
2026-04-21 13:32 53.65075 39.29910 40914 ft 532 kts 146°
2026-04-21 13:33 53.58949 39.36908 40913 ft 532 kts 147°
2026-04-21 13:33 53.52826 39.43877 40911 ft 532 kts 147°
2026-04-21 13:34 53.46694 39.50835 40909 ft 532 kts 147°
2026-04-21 13:34 53.40558 39.57767 40908 ft 532 kts 147°
2026-04-21 13:35 53.34422 39.64681 40909 ft 531 kts 147°
2026-04-21 13:35 53.28281 39.71570 40907 ft 531 kts 147°
2026-04-21 13:36 53.22138 39.78443 40904 ft 531 kts 147°
2026-04-21 13:36 53.15991 39.85295 40902 ft 531 kts 147°
2026-04-21 13:37 53.09841 39.92119 40898 ft 531 kts 147°
2026-04-21 13:37 53.03697 39.98924 40898 ft 531 kts 147°
2026-04-21 13:38 52.97535 40.05719 40895 ft 531 kts 147°
2026-04-21 13:38 52.91374 40.12491 40892 ft 531 kts 148°
2026-04-21 13:39 52.85211 40.19239 40889 ft 531 kts 148°
2026-04-21 13:39 52.79042 40.25971 40885 ft 531 kts 148°
2026-04-21 13:40 52.72870 40.32685 40884 ft 531 kts 148°
2026-04-21 13:40 52.66695 40.39379 40881 ft 531 kts 148°
2026-04-21 13:41 52.60524 40.46044 40878 ft 531 kts 148°
2026-04-21 13:41 52.54346 40.52698 40877 ft 531 kts 148°
2026-04-21 13:42 52.48161 40.59329 40876 ft 531 kts 148°
2026-04-21 13:42 52.42016 40.65902 40875 ft 531 kts 148°
2026-04-21 13:43 52.35825 40.72498 40875 ft 531 kts 148°
2026-04-21 13:43 52.29633 40.79076 40883 ft 531 kts 148°
2026-04-21 13:44 52.23438 40.85631 40883 ft 531 kts 148°
2026-04-21 13:44 52.17233 40.92177 40884 ft 531 kts 148°
2026-04-21 13:45 52.11024 40.98704 40885 ft 531 kts 148°
2026-04-21 13:45 52.04811 41.05213 40888 ft 531 kts 148°
2026-04-21 13:46 51.98600 41.11699 40891 ft 531 kts 149°
2026-04-21 13:46 51.92380 41.18174 40896 ft 531 kts 149°
2026-04-21 13:47 51.86153 41.24632 40897 ft 531 kts 149°
2026-04-21 13:47 51.79924 41.31072 40895 ft 531 kts 149°
2026-04-21 13:48 51.73692 41.37493 40898 ft 531 kts 149°
2026-04-21 13:48 51.67457 41.43897 40899 ft 531 kts 149°
2026-04-21 13:49 51.61220 41.50281 40902 ft 531 kts 149°
2026-04-21 13:49 51.54979 41.56648 40900 ft 531 kts 149°
2026-04-21 13:50 51.48740 41.62992 40903 ft 531 kts 149°
2026-04-21 13:50 51.42491 41.69325 40907 ft 531 kts 149°
2026-04-21 13:51 51.36238 41.75642 40910 ft 531 kts 149°
2026-04-21 13:51 51.29982 41.81941 40909 ft 531 kts 150°
2026-04-21 13:52 51.23723 41.88223 40917 ft 531 kts 150°
2026-04-21 13:52 51.17503 41.94445 40911 ft 531 kts 150°
2026-04-21 13:53 51.11239 42.00690 40911 ft 531 kts 150°
2026-04-21 13:53 51.04933 42.06958 40914 ft 531 kts 150°
2026-04-21 13:54 50.99731 42.12113 40912 ft 531 kts 150°
2026-04-21 13:54 50.92450 42.19305 40915 ft 530 kts 150°
2026-04-21 13:55 50.86184 42.25473 40915 ft 530 kts 150°
2026-04-21 13:55 50.80933 42.30626 40912 ft 530 kts 150°
2026-04-21 13:56 50.74671 42.36754 40911 ft 530 kts 150°
2026-04-21 13:56 50.68404 42.42867 40911 ft 529 kts 150°
2026-04-21 13:57 50.62177 42.48923 40911 ft 529 kts 150°
2026-04-21 13:57 50.55906 42.55000 40918 ft 529 kts 150°
2026-04-21 13:58 50.49512 42.60838 40919 ft 528 kts 152°
2026-04-21 13:58 50.43180 42.66553 40923 ft 528 kts 153°
2026-04-21 13:59 50.36775 42.72206 40911 ft 528 kts 153°
2026-04-21 13:59 50.30384 42.77892 40919 ft 528 kts 153°
2026-04-21 14:00 50.23985 42.83533 40918 ft 528 kts 153°
2026-04-21 14:00 50.17592 42.89169 40921 ft 528 kts 153°
2026-04-21 14:01 50.11197 42.94782 40915 ft 527 kts 153°
2026-04-21 14:01 50.04806 43.00375 40933 ft 527 kts 153°
2026-04-21 14:02 49.98422 43.05946 40929 ft 527 kts 153°
2026-04-21 14:03 49.88831 43.14283 40925 ft 527 kts 154°
2026-04-21 14:03 49.82435 43.19820 40931 ft 526 kts 154°
2026-04-21 14:04 49.76039 43.25342 40925 ft 526 kts 154°
2026-04-21 14:04 49.69643 43.30846 40928 ft 526 kts 154°
2026-04-21 14:05 49.63248 43.36333 40931 ft 526 kts 154°
2026-04-21 14:05 49.56852 43.41804 40926 ft 526 kts 154°
2026-04-21 14:06 49.50461 43.47254 40930 ft 526 kts 154°
2026-04-21 14:06 49.44057 43.52699 40924 ft 526 kts 154°
2026-04-21 14:07 49.37648 43.58132 40926 ft 526 kts 154°
2026-04-21 14:07 49.31233 43.63554 40927 ft 526 kts 154°
2026-04-21 14:08 49.24859 43.68925 40923 ft 526 kts 154°
2026-04-21 14:08 49.18440 43.74317 40927 ft 526 kts 154°
2026-04-21 14:09 49.12029 43.79688 40925 ft 526 kts 155°
2026-04-21 14:09 49.05609 43.85049 40924 ft 526 kts 155°
2026-04-21 14:10 48.99191 43.90393 40925 ft 525 kts 155°
2026-04-21 14:10 48.92774 43.95721 40925 ft 525 kts 155°
2026-04-21 14:11 48.86357 44.01032 40930 ft 525 kts 155°
2026-04-21 14:11 48.79942 44.06326 40929 ft 525 kts 155°
2026-04-21 14:12 48.73529 44.11603 40929 ft 525 kts 155°
2026-04-21 14:12 48.67110 44.16870 40932 ft 525 kts 155°
2026-04-21 14:13 48.60691 44.22122 40931 ft 524 kts 155°
2026-04-21 14:13 48.54271 44.27359 40929 ft 524 kts 155°
2026-04-21 14:14 48.47851 44.32580 40939 ft 524 kts 155°
2026-04-21 14:14 48.41433 44.37785 40933 ft 524 kts 155°
2026-04-21 14:15 48.35024 44.42968 40926 ft 523 kts 155°
2026-04-21 14:15 48.28609 44.48141 40920 ft 523 kts 155°
2026-04-21 14:16 48.22237 44.53264 40924 ft 523 kts 156°
2026-04-21 14:16 48.15827 44.58403 40918 ft 522 kts 156°
2026-04-21 14:17 48.09418 44.63527 40919 ft 522 kts 156°
2026-04-21 14:17 48.03006 44.68638 40920 ft 522 kts 156°
2026-04-21 14:18 47.96592 44.73737 40922 ft 522 kts 156°
2026-04-21 14:18 47.90183 44.78817 40920 ft 522 kts 156°
2026-04-21 14:19 47.83765 44.83890 40924 ft 522 kts 156°
2026-04-21 14:19 47.77342 44.88952 40923 ft 522 kts 156°
2026-04-21 14:20 47.70912 44.94006 40923 ft 523 kts 156°
2026-04-21 14:20 47.64482 44.99046 40924 ft 523 kts 156°
2026-04-21 14:21 47.58057 45.04068 40925 ft 523 kts 156°
2026-04-21 14:21 47.51623 45.09082 40926 ft 522 kts 156°
2026-04-21 14:22 47.45189 45.14083 40929 ft 522 kts 156°
2026-04-21 14:22 47.38756 45.19069 40930 ft 522 kts 156°
2026-04-21 14:23 47.32323 45.24041 40929 ft 522 kts 156°
2026-04-21 14:23 47.25890 45.29000 40928 ft 522 kts 156°
2026-04-21 14:24 47.19461 45.33941 40933 ft 521 kts 156°
2026-04-21 14:24 47.13030 45.38871 40935 ft 521 kts 156°
2026-04-21 14:25 47.06598 45.43788 40934 ft 521 kts 156°
2026-04-21 14:25 47.00214 45.48654 40940 ft 521 kts 156°
2026-04-21 14:26 46.93779 45.53547 40939 ft 521 kts 156°
2026-04-21 14:26 46.87341 45.58428 40938 ft 521 kts 156°
2026-04-21 14:27 46.80903 45.63296 40944 ft 521 kts 156°
2026-04-21 14:27 46.74464 45.68152 40942 ft 521 kts 156°
2026-04-21 14:28 46.68024 45.72996 40949 ft 521 kts 156°
2026-04-21 14:28 46.61582 45.77827 40949 ft 521 kts 156°
2026-04-21 14:29 46.55141 45.82645 40946 ft 520 kts 156°
2026-04-21 14:29 46.48700 45.87450 40943 ft 520 kts 156°
2026-04-21 14:30 46.42267 45.92237 40950 ft 520 kts 156°
2026-04-21 14:30 46.35825 45.97017 40948 ft 520 kts 156°
2026-04-21 14:31 46.29383 46.01784 40947 ft 520 kts 157°
2026-04-21 14:31 46.22941 46.06539 40950 ft 520 kts 157°
2026-04-21 14:32 46.16501 46.11279 40946 ft 520 kts 157°
2026-04-21 14:32 46.10056 46.16011 40949 ft 520 kts 157°
2026-04-21 14:33 46.03610 46.20731 40952 ft 520 kts 157°
2026-04-21 14:33 45.97162 46.25441 40948 ft 520 kts 157°
2026-04-21 14:34 45.90711 46.30140 40948 ft 520 kts 157°
2026-04-21 14:34 45.84259 46.34827 40949 ft 520 kts 157°
2026-04-21 14:35 45.77805 46.39504 40946 ft 520 kts 157°
2026-04-21 14:35 45.71358 46.44163 40950 ft 520 kts 157°
2026-04-21 14:36 45.64903 46.48816 40952 ft 519 kts 157°
2026-04-21 14:36 45.58448 46.53457 40942 ft 519 kts 157°
2026-04-21 14:37 45.51993 46.58086 40962 ft 519 kts 157°
2026-04-21 14:37 45.45538 46.62703 40959 ft 519 kts 157°
2026-04-21 14:38 45.39086 46.67306 40957 ft 519 kts 157°
2026-04-21 14:38 45.32630 46.71900 40956 ft 519 kts 157°
2026-04-21 14:39 45.26217 46.76452 40961 ft 519 kts 157°
2026-04-21 14:39 45.19760 46.81023 40961 ft 519 kts 157°
2026-04-21 14:40 45.13301 46.85584 40960 ft 518 kts 157°
2026-04-21 14:40 45.06849 46.90129 40965 ft 518 kts 157°
2026-04-21 14:41 45.00389 46.94667 40968 ft 518 kts 157°
2026-04-21 14:41 44.93928 46.99195 40968 ft 518 kts 157°
2026-04-21 14:42 44.87467 47.03712 40965 ft 518 kts 157°
2026-04-21 14:42 44.82094 47.07459 40972 ft 518 kts 157°
2026-04-21 14:43 44.75588 47.11986 40966 ft 518 kts 157°
2026-04-21 14:43 44.69125 47.16472 40963 ft 518 kts 157°
2026-04-21 14:44 44.62668 47.20942 40969 ft 518 kts 157°
2026-04-21 14:44 44.56247 47.25377 40973 ft 518 kts 158°
2026-04-21 14:45 44.49781 47.29831 40961 ft 518 kts 158°
2026-04-21 14:45 44.43315 47.34274 40967 ft 518 kts 158°
2026-04-21 14:46 44.36847 47.38708 40963 ft 518 kts 158°
2026-04-21 14:46 44.30377 47.43132 40965 ft 518 kts 158°
2026-04-21 14:47 44.23913 47.47541 40966 ft 518 kts 158°
2026-04-21 14:47 44.17439 47.51946 40965 ft 518 kts 158°
2026-04-21 14:48 44.10962 47.56343 40966 ft 518 kts 158°
2026-04-21 14:48 44.04484 47.60729 40974 ft 518 kts 158°
2026-04-21 14:49 43.98002 47.65107 40968 ft 518 kts 158°
2026-04-21 14:49 43.91518 47.69476 40968 ft 518 kts 158°
2026-04-21 14:50 43.85032 47.73836 40969 ft 518 kts 158°
2026-04-21 14:50 43.78544 47.78187 40971 ft 518 kts 158°
2026-04-21 14:51 43.72060 47.82523 40972 ft 518 kts 158°
2026-04-21 14:51 43.65567 47.86856 40966 ft 518 kts 158°
2026-04-21 14:52 43.59073 47.91179 40970 ft 518 kts 158°
2026-04-21 14:52 43.52577 47.95493 40969 ft 518 kts 158°
2026-04-21 14:53 43.46080 47.99797 40971 ft 518 kts 158°
2026-04-21 14:53 43.39626 48.04063 40969 ft 518 kts 158°
2026-04-21 14:54 43.33083 48.08377 40968 ft 518 kts 158°
2026-04-21 14:54 43.26634 48.12619 40973 ft 518 kts 158°
2026-04-21 14:55 43.20132 48.16885 40972 ft 518 kts 158°
2026-04-21 14:55 43.13630 48.21142 40971 ft 518 kts 158°
2026-04-21 14:56 43.07130 48.25387 40969 ft 518 kts 158°
2026-04-21 14:56 43.00625 48.29625 40963 ft 518 kts 158°
2026-04-21 14:57 42.94119 48.33854 40969 ft 518 kts 158°
2026-04-21 14:57 42.87612 48.38074 40965 ft 518 kts 158°
2026-04-21 14:58 42.81103 48.42285 40964 ft 518 kts 158°
2026-04-21 14:58 42.74594 48.46486 40967 ft 518 kts 158°
2026-04-21 14:59 42.68085 48.50678 40965 ft 517 kts 158°
2026-04-21 14:59 42.61578 48.54858 40965 ft 517 kts 158°
2026-04-21 15:00 42.55078 48.59025 40964 ft 517 kts 158°
2026-04-21 15:00 42.48571 48.63186 40963 ft 517 kts 158°
2026-04-21 15:01 42.42065 48.67337 40967 ft 517 kts 158°
2026-04-21 15:01 42.35562 48.71476 40965 ft 516 kts 158°
2026-04-21 15:02 42.29058 48.75607 40966 ft 516 kts 158°
2026-04-21 15:02 42.22553 48.79728 40969 ft 516 kts 158°
2026-04-21 15:03 42.16092 48.83812 40959 ft 516 kts 158°
2026-04-21 15:03 42.09550 48.87939 40970 ft 516 kts 159°
2026-04-21 15:04 42.03041 48.92032 40966 ft 516 kts 160°
2026-04-21 15:04 41.96466 48.95685 40974 ft 515 kts 161°
2026-04-21 15:05 41.89847 48.99361 40969 ft 515 kts 161°
2026-04-21 15:05 41.79915 49.04832 40972 ft 515 kts 161°
2026-04-21 15:06 41.73289 49.08476 40966 ft 515 kts 161°
2026-04-21 15:06 41.66660 49.12112 40965 ft 515 kts 161°
2026-04-21 15:07 41.60031 49.15743 40966 ft 515 kts 161°
2026-04-21 15:07 41.53399 49.19364 40967 ft 515 kts 161°
2026-04-21 15:08 41.46765 49.22980 40968 ft 515 kts 161°
2026-04-21 15:08 41.40131 49.26588 40971 ft 515 kts 162°
2026-04-21 15:09 41.33505 49.30184 40970 ft 515 kts 162°
2026-04-21 15:09 41.26870 49.33776 40974 ft 515 kts 162°
2026-04-21 15:10 41.20234 49.37361 40971 ft 515 kts 162°
2026-04-21 15:10 41.13599 49.40937 40971 ft 515 kts 162°
2026-04-21 15:11 41.06964 49.44506 40969 ft 515 kts 162°
2026-04-21 15:11 41.00329 49.48067 40971 ft 514 kts 162°
2026-04-21 15:12 40.93695 49.51620 40968 ft 514 kts 162°
2026-04-21 15:12 40.87059 49.55166 40967 ft 514 kts 162°
2026-04-21 15:13 40.80430 49.58700 40965 ft 514 kts 162°
2026-04-21 15:13 40.73837 49.62208 40965 ft 514 kts 162°
2026-04-21 15:14 40.67196 49.65734 40963 ft 514 kts 162°
2026-04-21 15:14 40.60563 49.69248 40966 ft 514 kts 162°
2026-04-21 15:15 40.53923 49.72759 40967 ft 514 kts 162°
2026-04-21 15:15 40.47282 49.76262 40964 ft 514 kts 162°
2026-04-21 15:16 40.40642 49.79757 40958 ft 514 kts 162°
2026-04-21 15:16 40.34008 49.83241 40960 ft 514 kts 162°
2026-04-21 15:17 40.27371 49.86721 40961 ft 514 kts 162°
2026-04-21 15:17 40.20736 49.90191 40962 ft 513 kts 162°
2026-04-21 15:18 40.14102 49.93653 40965 ft 513 kts 163°
2026-04-21 15:18 40.07468 49.97108 40966 ft 513 kts 163°
2026-04-21 15:19 40.00878 50.00534 40973 ft 513 kts 163°
2026-04-21 15:19 39.94243 50.03975 40977 ft 513 kts 163°
2026-04-21 15:20 39.87615 50.07405 40976 ft 513 kts 163°
2026-04-21 15:20 39.80981 50.10831 40969 ft 513 kts 163°
2026-04-21 15:21 39.74351 50.14249 40963 ft 512 kts 163°
2026-04-21 15:21 39.67725 50.17657 40966 ft 512 kts 163°
2026-04-21 15:22 39.61102 50.21057 40972 ft 512 kts 163°
2026-04-21 15:22 39.54479 50.24449 40974 ft 512 kts 163°
2026-04-21 15:23 39.47855 50.27835 40970 ft 512 kts 163°
2026-04-21 15:23 39.41236 50.31212 40967 ft 512 kts 163°
2026-04-21 15:24 39.34605 50.34588 40971 ft 512 kts 163°
2026-04-21 15:24 39.27968 50.37960 40970 ft 513 kts 163°
2026-04-21 15:25 39.21324 50.41328 40968 ft 513 kts 163°
2026-04-21 15:25 39.14674 50.44693 40969 ft 514 kts 163°
2026-04-21 15:26 39.08017 50.48054 40978 ft 514 kts 163°
2026-04-21 15:26 39.01360 50.51409 40971 ft 514 kts 163°
2026-04-21 15:27 38.94710 50.54753 40968 ft 514 kts 163°
2026-04-21 15:27 38.88052 50.58095 40970 ft 514 kts 163°
2026-04-21 15:28 38.81438 50.61408 40969 ft 514 kts 163°
2026-04-21 15:28 38.74780 50.64736 40970 ft 513 kts 163°
2026-04-21 15:29 38.68123 50.68057 40968 ft 513 kts 163°
2026-04-21 15:29 38.61465 50.71373 40967 ft 513 kts 163°
2026-04-21 15:30 38.54806 50.74681 40965 ft 513 kts 163°
2026-04-21 15:30 38.48155 50.77979 40971 ft 513 kts 163°
2026-04-21 15:31 38.41495 50.81275 40967 ft 513 kts 163°
2026-04-21 15:31 38.35913 50.84033 40968 ft 513 kts 163°
2026-04-21 15:32 38.29297 50.87296 40965 ft 513 kts 164°
2026-04-21 15:32 38.22635 50.90574 40964 ft 513 kts 164°
2026-04-21 15:33 38.15981 50.93843 40965 ft 513 kts 164°
2026-04-21 15:33 38.09318 50.97109 40961 ft 513 kts 164°
2026-04-21 15:34 38.02659 51.00367 40965 ft 513 kts 164°
2026-04-21 15:34 37.95917 51.03134 40980 ft 508 kts 169°
2026-04-21 15:35 37.89129 51.05574 40973 ft 507 kts 169°
2026-04-21 15:35 37.82340 51.08008 40969 ft 507 kts 169°
2026-04-21 15:36 37.75557 51.10435 40965 ft 506 kts 169°
2026-04-21 15:36 37.68778 51.12857 40961 ft 506 kts 169°
2026-04-21 15:37 37.62004 51.15271 40967 ft 506 kts 169°
2026-04-21 15:37 37.55233 51.17681 40967 ft 505 kts 169°
2026-04-21 15:38 37.48509 51.20068 40967 ft 505 kts 169°
2026-04-21 15:38 37.41740 51.22468 40962 ft 505 kts 169°
2026-04-21 15:39 37.34934 51.24876 40967 ft 505 kts 169°
2026-04-21 15:39 37.28210 51.27250 40961 ft 505 kts 169°
2026-04-21 15:40 37.21439 51.29637 40964 ft 505 kts 169°
2026-04-21 15:40 37.14666 51.32020 40963 ft 505 kts 170°
2026-04-21 15:41 37.07892 51.34399 40960 ft 506 kts 170°
2026-04-21 15:41 37.01113 51.36775 40966 ft 506 kts 170°
2026-04-21 15:42 36.94337 51.39146 40963 ft 506 kts 170°
2026-04-21 15:42 36.87552 51.41515 40966 ft 506 kts 170°
2026-04-21 15:43 36.80763 51.43882 40967 ft 507 kts 170°
2026-04-21 15:43 36.73972 51.46245 40963 ft 507 kts 170°
2026-04-21 15:44 36.67175 51.48605 40968 ft 507 kts 170°
2026-04-21 15:44 36.60372 51.50964 40967 ft 508 kts 170°
2026-04-21 15:45 36.53606 51.53306 40956 ft 508 kts 170°
2026-04-21 15:45 36.46788 51.55660 40957 ft 509 kts 170°
2026-04-21 15:46 36.39970 51.58011 40952 ft 509 kts 170°
2026-04-21 15:46 36.33142 51.60361 40941 ft 509 kts 170°
2026-04-21 15:47 36.26307 51.62708 40941 ft 510 kts 170°
2026-04-21 15:47 36.19467 51.65054 40936 ft 510 kts 170°
2026-04-21 15:48 36.12624 51.67396 40927 ft 510 kts 170°
2026-04-21 15:48 36.05781 51.69735 40922 ft 509 kts 170°
2026-04-21 15:49 35.98938 51.72067 40921 ft 510 kts 170°
2026-04-21 15:49 35.92085 51.74401 40898 ft 512 kts 170°
2026-04-21 15:50 35.85214 51.76735 40879 ft 513 kts 170°
2026-04-21 15:50 35.78334 51.79071 40881 ft 513 kts 170°
2026-04-21 15:51 35.71455 51.81399 40866 ft 513 kts 170°
2026-04-21 15:51 35.64576 51.83724 40847 ft 513 kts 170°
2026-04-21 15:52 35.57743 51.86029 40835 ft 513 kts 170°
2026-04-21 15:52 35.50860 51.88347 40815 ft 513 kts 170°
2026-04-21 15:53 35.43982 51.90660 40810 ft 513 kts 170°
2026-04-21 15:53 35.37093 51.92972 40798 ft 513 kts 170°
2026-04-21 15:54 35.30200 51.95281 40791 ft 514 kts 170°
2026-04-21 15:54 35.23303 51.97587 40803 ft 514 kts 170°
2026-04-21 15:55 35.16403 51.99891 40791 ft 514 kts 170°
2026-04-21 15:55 35.09500 52.02191 40781 ft 514 kts 171°
2026-04-21 15:56 35.02596 52.04487 40779 ft 514 kts 171°
2026-04-21 15:56 34.95697 52.06778 40782 ft 515 kts 171°
2026-04-21 15:57 34.88787 52.09069 40788 ft 515 kts 171°
2026-04-21 15:57 34.81873 52.11357 40789 ft 515 kts 171°
2026-04-21 15:58 34.74957 52.13642 40793 ft 515 kts 171°
2026-04-21 15:58 34.68032 52.15925 40795 ft 516 kts 171°
2026-04-21 15:59 34.61099 52.18207 40797 ft 516 kts 171°
2026-04-21 15:59 34.54158 52.20488 40805 ft 517 kts 171°
2026-04-21 16:00 34.47207 52.22769 40802 ft 518 kts 171°
2026-04-21 16:00 34.40253 52.25046 40832 ft 518 kts 171°
2026-04-21 16:01 34.33280 52.27326 40827 ft 519 kts 171°
2026-04-21 16:01 34.26353 52.29586 40838 ft 519 kts 171°
2026-04-21 16:02 34.19329 52.31875 40842 ft 519 kts 171°
2026-04-21 16:02 34.12349 52.34145 40852 ft 519 kts 171°
2026-04-21 16:03 34.05423 52.36394 40853 ft 519 kts 171°
2026-04-21 16:03 33.98443 52.38656 40864 ft 519 kts 171°
2026-04-21 16:04 33.91461 52.40915 40863 ft 520 kts 171°
2026-04-21 16:04 33.84480 52.43172 40880 ft 519 kts 171°
2026-04-21 16:05 33.77497 52.45422 40875 ft 520 kts 171°
2026-04-21 16:05 33.70515 52.47670 40879 ft 520 kts 171°
2026-04-21 16:06 33.63526 52.49916 40878 ft 520 kts 171°
2026-04-21 16:06 33.56534 52.52160 40887 ft 520 kts 171°
2026-04-21 16:07 33.49540 52.54400 40889 ft 520 kts 171°
2026-04-21 16:07 33.42551 52.56636 40907 ft 520 kts 171°
2026-04-21 16:08 33.32052 52.59986 40918 ft 521 kts 172°
2026-04-21 16:09 33.25048 52.62216 40927 ft 521 kts 172°
2026-04-21 16:09 33.18033 52.64446 40934 ft 522 kts 172°
2026-04-21 16:10 33.11029 52.66670 40942 ft 521 kts 172°
2026-04-21 16:10 33.04024 52.68889 40946 ft 520 kts 172°
2026-04-21 16:11 32.97032 52.71102 40954 ft 519 kts 172°
2026-04-21 16:11 32.90046 52.73308 40947 ft 519 kts 172°
2026-04-21 16:12 32.84241 52.75139 40938 ft 519 kts 172°
2026-04-21 16:12 32.76088 52.77706 40930 ft 518 kts 172°
2026-04-21 16:13 32.69165 52.79882 40913 ft 518 kts 172°
2026-04-21 16:13 32.62198 52.82068 40900 ft 518 kts 172°
2026-04-21 16:14 32.55241 52.84248 40892 ft 518 kts 172°
2026-04-21 16:14 32.48276 52.86426 40878 ft 518 kts 173°
2026-04-21 16:15 32.41308 52.88602 40868 ft 517 kts 173°
2026-04-21 16:15 32.34345 52.90773 40861 ft 517 kts 173°
2026-04-21 16:16 32.27397 52.92936 40869 ft 517 kts 173°
2026-04-21 16:16 32.20437 52.95099 40860 ft 517 kts 173°
2026-04-21 16:17 32.13476 52.97260 40853 ft 517 kts 173°
2026-04-21 16:17 32.06515 52.99416 40854 ft 517 kts 173°
2026-04-21 16:18 31.99552 53.01570 40859 ft 517 kts 173°
2026-04-21 16:18 31.92584 53.03722 40858 ft 518 kts 173°
2026-04-21 16:19 31.85618 53.05870 40861 ft 518 kts 173°
2026-04-21 16:19 31.79820 53.07655 40865 ft 518 kts 173°
2026-04-21 16:20 31.72852 53.09798 40865 ft 518 kts 173°
2026-04-21 16:20 31.65871 53.11941 40870 ft 519 kts 173°
2026-04-21 16:21 31.58887 53.14082 40864 ft 519 kts 173°
2026-04-21 16:21 31.51898 53.16220 40861 ft 519 kts 173°
2026-04-21 16:22 31.44905 53.18358 40855 ft 519 kts 173°
2026-04-21 16:22 31.37909 53.20492 40863 ft 519 kts 173°
2026-04-21 16:23 31.30910 53.22624 40859 ft 520 kts 173°
2026-04-21 16:23 31.23914 53.24753 40865 ft 520 kts 173°
2026-04-21 16:24 31.16903 53.26882 40863 ft 520 kts 173°
2026-04-21 16:24 31.09940 53.28993 40870 ft 521 kts 173°
2026-04-21 16:25 31.02879 53.31131 40889 ft 521 kts 173°
2026-04-21 16:25 30.95868 53.33251 40886 ft 521 kts 173°
2026-04-21 16:26 30.88844 53.35371 40904 ft 522 kts 173°
2026-04-21 16:26 30.81815 53.37490 40918 ft 522 kts 173°
2026-04-21 16:27 30.74827 53.39593 40935 ft 522 kts 173°
2026-04-21 16:27 30.67788 53.41708 40951 ft 523 kts 173°
2026-04-21 16:28 30.60743 53.43822 40966 ft 523 kts 173°
2026-04-21 16:28 30.53689 53.45935 40972 ft 524 kts 173°
2026-04-21 16:29 30.46638 53.48044 40992 ft 523 kts 173°
2026-04-21 16:29 30.39579 53.50153 41004 ft 524 kts 173°
2026-04-21 16:30 30.32513 53.52260 41026 ft 524 kts 173°
2026-04-21 16:30 30.25439 53.54367 41025 ft 525 kts 173°
2026-04-21 16:31 30.18365 53.56470 41028 ft 526 kts 173°
2026-04-21 16:31 30.11274 53.58576 41028 ft 526 kts 173°
2026-04-21 16:32 30.04172 53.60681 41026 ft 527 kts 173°
2026-04-21 16:32 29.97054 53.62789 41026 ft 528 kts 173°
2026-04-21 16:33 29.89929 53.64894 41015 ft 530 kts 173°
2026-04-21 16:33 29.82784 53.67005 41026 ft 530 kts 173°
2026-04-21 16:34 29.75643 53.69109 41014 ft 530 kts 173°
2026-04-21 16:34 29.68500 53.71211 41011 ft 531 kts 173°
2026-04-21 16:35 29.61337 53.73316 41009 ft 532 kts 173°
2026-04-21 16:35 29.54165 53.75421 41017 ft 532 kts 173°
2026-04-21 16:36 29.46991 53.77521 41014 ft 532 kts 173°
2026-04-21 16:36 29.39814 53.79622 41024 ft 532 kts 173°
2026-04-21 16:37 29.32633 53.81720 41029 ft 533 kts 173°
2026-04-21 16:37 29.25444 53.83817 41033 ft 533 kts 173°
2026-04-21 16:38 29.18253 53.85913 41048 ft 534 kts 173°
2026-04-21 16:38 29.11055 53.88006 41060 ft 534 kts 173°
2026-04-21 16:39 29.03851 53.90099 41068 ft 535 kts 173°
2026-04-21 16:39 28.96636 53.92191 41065 ft 535 kts 173°
2026-04-21 16:40 28.89462 53.94269 41064 ft 536 kts 173°
2026-04-21 16:40 28.82241 53.96357 41062 ft 536 kts 173°
2026-04-21 16:41 28.75003 53.98448 41055 ft 537 kts 173°
2026-04-21 16:41 28.67761 54.00536 41046 ft 537 kts 173°
2026-04-21 16:42 28.60515 54.02623 41039 ft 537 kts 173°
2026-04-21 16:42 28.53264 54.04708 41029 ft 538 kts 173°
2026-04-21 16:43 28.46007 54.06792 41045 ft 538 kts 173°
2026-04-21 16:43 28.38742 54.08875 41034 ft 538 kts 173°
2026-04-21 16:44 28.31471 54.10956 41036 ft 540 kts 172°
2026-04-21 16:44 28.24171 54.13046 41029 ft 541 kts 172°
2026-04-21 16:45 28.16862 54.15131 41032 ft 542 kts 172°
2026-04-21 16:45 28.09550 54.17217 41036 ft 542 kts 172°
2026-04-21 16:46 28.02234 54.19299 41030 ft 542 kts 172°
2026-04-21 16:46 27.94911 54.21382 41024 ft 542 kts 172°
2026-04-21 16:47 27.87586 54.23461 41021 ft 543 kts 172°
2026-04-21 16:47 27.80266 54.25537 41025 ft 544 kts 172°
2026-04-21 16:48 27.72971 54.27603 41021 ft 544 kts 172°
2026-04-21 16:48 27.65619 54.29681 41022 ft 545 kts 172°
2026-04-21 16:49 27.58254 54.31761 41017 ft 546 kts 172°
2026-04-21 16:49 27.50891 54.33837 41019 ft 546 kts 172°
2026-04-21 16:50 27.43512 54.35915 41002 ft 547 kts 172°
2026-04-21 16:50 27.36122 54.37993 40999 ft 548 kts 172°
2026-04-21 16:51 27.28723 54.40071 40966 ft 548 kts 172°
2026-04-21 16:51 27.21318 54.42147 40953 ft 549 kts 172°
2026-04-21 16:52 27.13901 54.44226 40931 ft 550 kts 172°
2026-04-21 16:52 27.06468 54.46303 40915 ft 551 kts 172°
2026-04-21 16:53 26.99034 54.48381 40855 ft 549 kts 172°
2026-04-21 16:53 26.95336 54.49414 40270 ft 546 kts 172°
2026-04-21 16:53 26.91650 54.50439 39549 ft 547 kts 172°
2026-04-21 16:53 26.87949 54.51468 38827 ft 548 kts 172°
2026-04-21 16:54 26.84244 54.52500 38027 ft 548 kts 172°
2026-04-21 16:54 26.80554 54.53528 37330 ft 545 kts 172°
2026-04-21 16:54 26.76879 54.54550 36612 ft 543 kts 171°
2026-04-21 16:54 26.73221 54.55565 35897 ft 540 kts 171°
2026-04-21 16:55 26.69628 54.56563 35183 ft 538 kts 170°
2026-04-21 16:55 26.66006 54.57568 34454 ft 535 kts 170°
2026-04-21 16:55 26.62404 54.58567 33738 ft 532 kts 169°
2026-04-21 16:55 26.58827 54.59560 32986 ft 527 kts 169°
2026-04-21 16:56 26.55287 54.60542 32281 ft 521 kts 169°
2026-04-21 16:56 26.51783 54.61512 31574 ft 516 kts 169°
2026-04-21 16:56 26.48321 54.62468 30867 ft 511 kts 169°
2026-04-21 16:56 26.44888 54.63418 30170 ft 506 kts 169°
2026-04-21 16:57 26.41486 54.64358 29427 ft 500 kts 169°
2026-04-21 16:57 26.38134 54.65284 28733 ft 492 kts 169°
2026-04-21 16:57 26.34834 54.66195 28049 ft 485 kts 169°
2026-04-21 16:57 26.31584 54.67091 27364 ft 477 kts 169°
2026-04-21 16:58 26.28383 54.67973 26695 ft 470 kts 170°
2026-04-21 16:58 26.25234 54.68841 26016 ft 464 kts 170°
2026-04-21 16:58 26.22122 54.69697 25351 ft 457 kts 170°
2026-04-21 16:58 26.19053 54.70542 24700 ft 451 kts 170°
2026-04-21 16:59 26.16023 54.71375 24042 ft 446 kts 170°
2026-04-21 16:59 26.13031 54.72197 23389 ft 440 kts 170°
2026-04-21 16:59 26.10079 54.73008 22686 ft 433 kts 170°
2026-04-21 16:59 26.07181 54.73804 22042 ft 425 kts 170°
2026-04-21 17:00 26.04335 54.74585 21406 ft 418 kts 170°
2026-04-21 17:00 26.01538 54.75352 20776 ft 410 kts 170°
2026-04-21 17:00 25.99710 54.75853 20363 ft 406 kts 169°
2026-04-21 17:00 25.96113 54.76838 19527 ft 398 kts 169°
2026-04-21 17:01 25.93441 54.77570 18925 ft 393 kts 169°
2026-04-21 17:01 25.90802 54.78292 18299 ft 388 kts 169°
2026-04-21 17:01 25.88194 54.79006 17647 ft 383 kts 169°
2026-04-21 17:01 25.85592 54.79719 17018 ft 377 kts 169°
2026-04-21 17:02 25.83072 54.80408 16404 ft 371 kts 169°
2026-04-21 17:02 25.80583 54.81088 15802 ft 366 kts 169°
2026-04-21 17:02 25.78159 54.81750 15274 ft 360 kts 168°
2026-04-21 17:02 25.75757 54.82406 14754 ft 353 kts 168°
2026-04-21 17:03 25.73380 54.83054 14140 ft 351 kts 168°
2026-04-21 17:03 25.71018 54.83698 13514 ft 349 kts 168°
2026-04-21 17:03 25.68671 54.84339 12897 ft 345 kts 168°
2026-04-21 17:03 25.66357 54.84971 12430 ft 338 kts 168°
2026-04-21 17:04 25.64133 54.85581 12279 ft 320 kts 167°
2026-04-21 17:04 25.62139 54.86521 12150 ft 306 kts 145°
2026-04-21 17:04 25.60665 54.88164 11892 ft 297 kts 121°
2026-04-21 17:04 25.59746 54.90172 11880 ft 294 kts 113°
2026-04-21 17:05 25.58928 54.92272 11880 ft 298 kts 111°
2026-04-21 17:05 25.58125 54.94399 11796 ft 301 kts 112°
2026-04-21 17:05 25.57301 54.96525 11640 ft 301 kts 112°
2026-04-21 17:05 25.56466 54.98645 11451 ft 300 kts 112°
2026-04-21 17:06 25.55640 55.00756 11262 ft 298 kts 112°
2026-04-21 17:06 25.54818 55.02865 11063 ft 297 kts 113°
2026-04-21 17:06 25.53821 55.04856 11007 ft 294 kts 120°
2026-04-21 17:06 25.52809 55.06836 11011 ft 296 kts 118°
2026-04-21 17:07 25.52135 55.08178 11010 ft 296 kts 118°
2026-04-21 17:07 25.50781 55.10803 11019 ft 296 kts 119°
2026-04-21 17:07 25.49750 55.12772 11020 ft 296 kts 119°
2026-04-21 17:07 25.48720 55.14751 10976 ft 297 kts 119°
2026-04-21 17:08 25.47687 55.16746 10671 ft 299 kts 119°
2026-04-21 17:08 25.46658 55.18729 10380 ft 295 kts 119°
2026-04-21 17:08 25.45941 55.20003 10173 ft 294 kts 128°
2026-04-21 17:08 25.44602 55.21698 9905 ft 292 kts 132°
2026-04-21 17:09 25.41878 55.25002 9320 ft 289 kts 131°
2026-04-21 17:09 25.40541 55.26651 9036 ft 287 kts 131°
2026-04-21 17:09 25.39193 55.28313 8750 ft 285 kts 131°
2026-04-21 17:10 25.37900 55.29899 8472 ft 278 kts 131°
2026-04-21 17:10 25.36623 55.31464 8206 ft 271 kts 131°
2026-04-21 17:10 25.35429 55.33045 7944 ft 264 kts 120°
2026-04-21 17:10 25.34486 55.34758 7695 ft 258 kts 120°
2026-04-21 17:11 25.33554 55.36435 7438 ft 254 kts 120°
2026-04-21 17:11 25.32631 55.38091 7199 ft 253 kts 120°
2026-04-21 17:11 25.31711 55.39744 6969 ft 253 kts 120°
2026-04-21 17:11 25.30791 55.41397 6723 ft 252 kts 120°
2026-04-21 17:12 25.29873 55.43045 6479 ft 251 kts 120°
2026-04-21 17:12 25.28958 55.44688 6239 ft 251 kts 120°
2026-04-21 17:12 25.28045 55.46326 5987 ft 249 kts 120°
2026-04-21 17:12 25.27110 55.48006 5182 ft 268 kts 120°
2026-04-21 17:13 25.26131 55.49765 4767 ft 268 kts 120°
2026-04-21 17:13 25.25156 55.51516 4356 ft 267 kts 120°
2026-04-21 17:13 25.24195 55.53243 3916 ft 258 kts 120°
2026-04-21 17:13 25.23260 55.54924 3446 ft 257 kts 120°
2026-04-21 17:14 25.22325 55.56606 2963 ft 258 kts 120°
2026-04-21 17:14 25.21332 55.58243 2410 ft 256 kts 133°
2026-04-21 17:14 25.19860 55.59268 2082 ft 252 kts 163°
2026-04-21 17:14 25.18129 55.59376 2034 ft 252 kts 191°
2026-04-21 17:15 25.16541 55.58571 2028 ft 253 kts 217°
2026-04-21 17:15 25.15308 55.57195 2030 ft 253 kts 229°
2026-04-21 17:15 25.13929 55.55985 2020 ft 256 kts 212°
2026-04-21 17:15 25.12566 55.54757 2030 ft 255 kts 235°
2026-04-21 17:16 25.11916 55.52965 2023 ft 252 kts 266°
2026-04-21 17:16 25.12165 55.51087 2022 ft 250 kts 296°
2026-04-21 17:16 25.13232 55.49621 2020 ft 243 kts 326°
2026-04-21 17:16 25.14674 55.49019 2004 ft 216 kts 355°
2026-04-21 17:17 25.16142 55.49163 1996 ft 211 kts 18°
2026-04-21 17:17 25.17409 55.49956 2238 ft 210 kts 41°
2026-04-21 17:17 25.18224 55.51150 2980 ft 182 kts 62°
2026-04-21 17:17 25.18552 55.52398 3669 ft 159 kts 79°
2026-04-21 17:18 25.18729 55.53749 4022 ft 204 kts 78°
2026-04-21 17:18 25.18938 55.55339 4030 ft 212 kts 79°
2026-04-21 17:18 25.19016 55.57007 4018 ft 222 kts 101°
2026-04-21 17:18 25.18281 55.58499 4172 ft 225 kts 136°
2026-04-21 17:19 25.16923 55.59385 3929 ft 231 kts 166°
2026-04-21 17:19 25.15349 55.59383 3418 ft 227 kts 198°
2026-04-21 17:19 25.14050 55.58480 2906 ft 220 kts 231°
2026-04-21 17:19 25.13430 55.56988 2375 ft 214 kts 264°
2026-04-21 17:20 25.13615 55.55410 2010 ft 201 kts 291°
2026-04-21 17:20 25.14308 55.54166 1999 ft 187 kts 308°
2026-04-21 17:20 25.15082 55.53045 1999 ft 180 kts 309°
2026-04-21 17:20 25.15848 55.51965 2000 ft 178 kts 312°
2026-04-21 17:21 25.16715 55.50999 2007 ft 176 kts 317°
2026-04-21 17:21 25.17536 55.49997 2019 ft 175 kts 310°
2026-04-21 17:21 25.18283 55.48935 1980 ft 177 kts 307°
2026-04-21 17:21 25.18941 55.47847 1778 ft 162 kts 304°
2026-04-21 17:22 25.19532 55.46821 1592 ft 157 kts 304°
2026-04-21 17:22 25.20097 55.45807 1380 ft 152 kts 303°
2026-04-21 17:22 25.20645 55.44815 1174 ft 152 kts 303°
2026-04-21 17:22 25.21195 55.43820 975 ft 151 kts 303°
2026-04-21 17:23 25.21734 55.42844 784 ft 149 kts 302°
2026-04-21 17:23 25.22270 55.41863 588 ft 148 kts 302°
2026-04-21 17:23 25.22807 55.40894 402 ft 148 kts 302°
2026-04-21 17:23 25.23340 55.39928 217 ft 146 kts 302°
2026-04-21 17:24 25.23865 55.38977 53 ft 142 kts 302°
2026-04-21 17:24 25.24329 55.38149 24 ft 102 kts 301°
2026-04-21 17:24 25.24598 55.37663 20 ft 33 kts 301°
2026-04-21 17:24 25.24654 55.37563 19 ft 12 kts 301°
2026-04-21 17:25 25.24699 55.37480 21 ft 13 kts 301°
2026-04-21 17:25 25.24737 55.37397 19 ft 11 kts 292°
2026-04-21 17:25 25.24760 55.37320 19 ft 10 kts 285°
2026-04-21 17:25 25.24773 55.37246 17 ft 11 kts 277°
2026-04-21 17:26 25.24781 55.37157 18 ft 9 kts 271°
2026-04-21 17:26 25.24781 55.37141 16 ft 5 kts 270°
2026-04-21 17:26 25.24782 55.37062 16 ft 14 kts 271°
2026-04-21 17:26 25.24796 55.36962 18 ft 11 kts 288°
2026-04-21 17:27 25.24823 55.36886 17 ft 11 kts 292°
2026-04-21 17:27 25.24849 55.36809 16 ft 10 kts 285°
2026-04-21 17:27 25.24868 55.36728 18 ft 10 kts 279°
2026-04-21 17:27 25.24863 55.36679 18 ft 5 kts 250°
2026-04-21 17:28 25.24831 55.36638 16 ft 6 kts 223°
2026-04-21 17:28 25.24803 55.36614 16 ft 6 kts 216°
2026-04-21 17:28 25.24765 55.36585 17 ft 8 kts 215°
2026-04-21 17:28 25.24727 55.36558 17 ft 0 kts 212°